Weather History for Phnom Penh, Cambodia

Change the Weather History Date:

Wednesday, June 19, 2013

  Actual Average Record
Temperature  
Mean Temperature 85 °F -  
Max Temperature 93 °F 88 °F 96 °F (2005)
Min Temperature 77 °F 77 °F 75 °F (2004)
Cooling Degree Days 20    
Growing Degree Days 35 (Base 50)    
Moisture  
Dew Point 75 °F    
Average Humidity 67    
Maximum Humidity 90    
Minimum Humidity 52    
Precipitation  
Precipitation 0.00 in - - ()
Sea Level Pressure  
Sea Level Pressure 29.63 in    
Wind  
Wind Speed 7 mph ()    
Max Wind Speed 21 mph    
Max Gust Speed 28 mph    
Visibility 6.2 miles    
Events Rain , Thunderstorm    
Averages and records for this station are not official NWS values.
T = Trace of Precipitation, MM = Missing Value Source: Averaged Metar Reports

Daily Weather History Graph

Daily Weather History Graph

Search for Another Location

Airport:

Trip Planner

Search our weather history database for the weather conditions in past years. The results will help you decide how hot, cold, wet, or windy it might be!

Date:

Astronomy

Jun. 19, 2013 Rise Set
Actual Time 5:37 AM ICT 6:26 PM ICT
Civil Twilight 5:14 AM ICT 6:49 PM ICT
Nautical Twilight 4:47 AM ICT 7:16 PM ICT
Astronomical Twilight 4:19 AM ICT 7:44 PM ICT
Moon 2:12 PM ICT (6/19) 1:24 AM ICT (6/19)
Length of Visible Light 13h 34m
Length of Day
12h 48m
Waxing Gibbous, 76% of the Moon is Illuminated
Jun 19
Waxing Gibbous
Jun 23
Full
Jun 30
Last Quarter
Jul 8
New
Jul 16
First Quarter

Hourly Weather History & Observations

Time (ICT) Temp. Heat Index Dew Point Humidity Pressure Visibility Wind Dir Wind Speed Gust Speed Precip Events Conditions
12:00 AM 84.2 °F 92.3 °F 75.2 °F 74% 29.62 in 6.2 mi SSE 3.5 mph - N/A   Mostly Cloudy
12:30 AM 82.4 °F 88.2 °F 73.4 °F 74% 29.62 in 6.2 mi South 4.6 mph - N/A   Mostly Cloudy
6:00 AM 82.4 °F 90.9 °F 77.0 °F 84% 29.62 in 6.2 mi SSE 3.5 mph - N/A   Mostly Cloudy
7:00 AM 81 °F - 78 °F 90% 29.67 in 6 mi Calm Calm - -   Overcast
7:00 AM 84.2 °F 96.1 °F 78.8 °F 84% 29.62 in 6.2 mi SSE 3.5 mph - N/A   Mostly Cloudy
7:30 AM 84.2 °F 94.1 °F 77.0 °F 79% 29.65 in 6.2 mi South 4.6 mph - N/A   Mostly Cloudy
8:30 AM 86.0 °F 96.9 °F 77.0 °F 74% 29.65 in 6.2 mi SSW 8.1 mph - N/A   Scattered Clouds
9:00 AM 87.8 °F 99.7 °F 77.0 °F 70% 29.65 in 6.2 mi South 10.4 mph - N/A   Scattered Clouds
9:30 AM 87.8 °F 99.7 °F 77.0 °F 70% 29.68 in 6.2 mi SSW 6.9 mph - N/A   Scattered Clouds
10:00 AM 87.8 °F 97.6 °F 75.2 °F 66% 29.65 in 6.2 mi SSW 10.4 mph - N/A   Scattered Clouds
10:30 AM 89.6 °F 98.2 °F 73.4 °F 59% 29.65 in 6.2 mi WSW 11.5 mph - N/A   Partly Cloudy
11:00 AM 89.6 °F 98.2 °F 73.4 °F 59% 29.65 in 6.2 mi WSW 11.5 mph - N/A   Scattered Clouds
11:30 AM 89.6 °F 98.2 °F 73.4 °F 59% 29.65 in 6.2 mi WSW 9.2 mph - N/A   Scattered Clouds
12:00 PM 91.4 °F 100.1 °F 73.4 °F 55% 29.62 in 6.2 mi WSW 10.4 mph - N/A   Partly Cloudy
12:30 PM 91.4 °F 100.1 °F 73.4 °F 55% 29.62 in 6.2 mi WSW 19.6 mph - N/A   Partly Cloudy
1:00 PM 93.2 °F 102.4 °F 73.4 °F 52% 29.59 in 6.2 mi West 17.3 mph - N/A   Scattered Clouds
1:30 PM 93.2 °F 102.4 °F 73.4 °F 52% 29.59 in 6.2 mi WSW 20.7 mph - N/A   Scattered Clouds
2:00 PM 93.2 °F 102.4 °F 73.4 °F 52% 29.59 in 6.2 mi WSW 17.3 mph - N/A   Scattered Clouds
2:30 PM 89.6 °F 98.2 °F 73.4 °F 59% 29.59 in 5.6 mi SW 13.8 mph 27.6 mph N/A Rain , Thunderstorm Thunderstorms and Rain
3:00 PM 86.0 °F 95.1 °F 75.2 °F 70% 29.56 in - North - - N/A Rain Rain
3:30 PM 86.0 °F 95.1 °F 75.2 °F 70% 29.56 in 5.6 mi West 10.4 mph - N/A Rain Rain
4:00 PM 87.8 °F 97.6 °F 75.2 °F 66% 29.56 in 6.2 mi West 10.4 mph - N/A   Scattered Clouds
4:30 PM 87.8 °F 97.6 °F 75.2 °F 66% 29.56 in 6.2 mi West 9.2 mph - N/A   Scattered Clouds
5:00 PM 89.6 °F 98.2 °F 73.4 °F 59% 29.59 in 6.2 mi West 12.7 mph - N/A   Scattered Clouds
5:30 PM 87.8 °F 95.6 °F 73.4 °F 62% 29.59 in 6.2 mi WSW 10.4 mph - N/A   Scattered Clouds
6:00 PM 87.8 °F 95.6 °F 73.4 °F 62% 29.59 in 6.2 mi WSW 12.7 mph - N/A   Scattered Clouds
6:30 PM 86.0 °F 93.4 °F 73.4 °F 66% 29.62 in 6.2 mi WSW 11.5 mph - N/A   Scattered Clouds
7:00 PM 86.0 °F 93.4 °F 73.4 °F 66% 29.62 in 6.2 mi WSW 9.2 mph - N/A   Scattered Clouds
7:30 PM 86.0 °F 95.1 °F 75.2 °F 70% 29.65 in 6.2 mi WSW 8.1 mph - N/A   Scattered Clouds
8:00 PM 84.2 °F 92.3 °F 75.2 °F 74% 29.65 in 6.2 mi SSW 5.8 mph - N/A   Scattered Clouds
8:30 PM 84.2 °F 92.3 °F 75.2 °F 74% 29.65 in 6.2 mi SSW 4.6 mph - N/A   Scattered Clouds
9:00 PM 84.2 °F 92.3 °F 75.2 °F 74% 29.68 in 6.2 mi SSW 5.8 mph - N/A   Scattered Clouds
10:30 PM 84.2 °F 90.9 °F 73.4 °F 70% 29.71 in 6.2 mi WSW 6.9 mph - N/A   Scattered Clouds
11:00 PM 84.2 °F 90.9 °F 73.4 °F 70% 29.71 in 6.2 mi SW 6.9 mph - N/A   Scattered Clouds
11:30 PM 84.2 °F 92.3 °F 75.2 °F 74% 29.68 in 6.2 mi WSW 8.1 mph - N/A   Scattered Clouds